STARLETTE

Last updated on Sun Nov 16 2025 00:04:46 GMT+0000 (Coordinated Universal Time)

1 07646U 75010A 25319.46666612 -.00000132 00000+0 10971-4 0 9991 2 07646 49.8228 228.1897 0205650 76.9777 285.3988 13.82346578564977
UTC large
Height (km)
Speed (km/s)
/
Latitude / Longitude
Inclination (degrees)
Orbital Period (minutes)
Azimuth
Elevation
Range (km)
Doppler Factor

Next 0 passes for location: London (51.5072 / 0.1276)

Sorry there are no passes over London.